Current Version              Previous Version:    01  02  03  04  05  06  07  08  09  10  11  12  13  14  15  16  17  18  19  20  21  22  23  24  25  26  27  28  29  30  
   31  32  33  34  35  36  37  38  39  40  41  42  43  44  45  46  47  48  49  50  51  52  53  54  55  56  57  58  59  60  

[Printable]
217
ASUS44 KLUB 220710
RWRTX
WEST TEXAS WEATHER ROUNDUP
NATIONAL WEATHER SERVICE LUBBOCK TX
200 AM CDT WED OCT 22 2014

NOTE: "FAIR" INDICATES FEW OR NO CLOUDS BELOW 12,000 FEET WITH NO
SIGNIFICANT WEATHER AND/OR OBSTRUCTIONS TO VISIBILITY.

TXZ004-006>008-010-012-014-016-OKZ002-220800-
TEXAS PANHANDLE/OKLAHOMA PANHANDLE

CITY           SKY/WX    TMP DP  RH WIND       PRES   REMARKS
AMARILLO       PTCLDY    60  51  72 S13       30.08S
BORGER         CLEAR     61  49  64 S8        30.07S
CANADIAN       CLEAR     63  52  68 S13       30.05S
DALHART        PTCLDY    56  53  90 SW8       30.07S
DUMAS          PTCLDY    52  48  84 S7        30.07S
GUYMON         MOCLDY    57  48  72 S8        30.03R
HEREFORD       CLOUDY    62  58  88 S6        30.10R
PAMPA          CLEAR     58  48  69 S9        30.08S
PERRYTON       CLEAR     56  48  76 S9        30.05S
$$

TXZ026-029-035-045-048-220800-
SOUTHERN PANHANDLE/SOUTH PLAINS/ROLLING PLAINS

CITY           SKY/WX    TMP DP  RH WIND       PRES   REMARKS
CHILDRESS      CLEAR     59  49  69 SE7       30.07R
SEMINOLE       DRIZZLE   61  59  91 S3        30.10S
LUBBOCK        MOCLDY    64  50  60 S10       30.08S
PLAINVIEW      CLOUDY    57  53  87 SE5       30.08R
SNYDER         PTCLDY    62  51  67 SE8       30.08R
$$

TXZ052-054-060>062-072-078-127-140-154-169-220800-
PERMIAN BASIN/CONCHO VALLEY/BIG COUNTRY/EDWARDS PLATEAU

CITY           SKY/WX    TMP DP  RH WIND       PRES   REMARKS
ABILENE        CLEAR     63  50  62 S7        30.07S
BIG SPRING     CLOUDY    64  53  67 CALM      30.09R
BRADY          CLEAR     64  46  52 SE3       30.07S
BROWNWOOD      CLOUDY    61  54  77 CALM      30.07S
JUNCTION       CLOUDY    68  47  46 E6        30.07S
MIDLAND        CLOUDY    67  58  72 S6        30.07S
ODESSA         CLOUDY    65  59  81 SW3       30.08S
SAN ANGELO     CLOUDY    70  53  54 S8        30.06S
SONORA         CLOUDY    66  59  77 E3        30.10F
SWEETWATER     CLEAR     64  50  61 SE10      30.10S
WINK           MOCLDY    64  62  93 SE9       30.05S
$$

TXZ055-058-074-075-080-082-220800-
FAR WEST/SOUTHWEST MOUNTAINS/TRANS PECOS

CITY           SKY/WX    TMP DP  RH WIND       PRES   REMARKS
ALPINE         CLOUDY    61  56  84 S5        30.17R
DRYDEN           N/A     65  64  97 E8        30.03S
EL PASO        PTCLDY    61  55  81 NE5       30.06R
FORT STOCKTON  CLOUDY    61  59  93 CALM      30.07S
GUADALUPE PASS CLOUDY    55  54  96 NE9       30.16R
MARFA          CLOUDY    57  55  94 CALM      30.14S
PECOS          MOCLDY    60  58  94 E5        30.05R
PRESIDIO       CLOUDY    66  60  81 MISG      30.03S
$$

TXZ014-016-019-021>030-083-220800
TEXAS TECH WEST TEXAS MESONET/TEXAS PANHANDLE/NORTHERN SOUTH PLAINS

CITY           SKY/WX    TMP DP  RH WIND       PRES   REMARKS
ABERNATHY 5ENE   N/A     57  51  80 SE3       30.10S
AMARILLO 9NNE    N/A     55  49  81 S3        30.08R
AMARILLO 7SSE    N/A     58  53  81 S8        30.10S
AMHERST 1NE      N/A     60  55  84 S5        30.10S
BOOTLEG 11WNW    N/A     57  55  91 S10       30.12S
CANADIAN 6E      N/A     57  50  78 SE5       30.05S
CAPROCK CYN SP   N/A     58  49  73 SW9       30.07S
CHILDRESS 2NNE   N/A     57  49  74 S7        30.06R
CLARENDON 2WSW   N/A     57  49  74 S7        30.07S
CLAUDE 12SW      N/A     61  51  68 S6        30.09S
DIMMITT 2NE      N/A     60  55  83 S6        30.10S
FLOYDADA 2NNE    N/A     54  48  81 S8        30.09R
FRIONA 2NE       N/A     59  55  86 S6        30.11S
GOODLETT 3W      N/A     59  48  67 S5        30.05R
HART 3N          N/A     59  53  81 SE3       30.10R
HEREFORD 2NW     N/A     60  55  84 S5        30.10S
MCLEAN 1E        N/A     58  48  69 SE8       30.06S
MEMPHIS 1NE      N/A     52  46  79 N1        30.06S
MULESHOE 2SSW    N/A     57  55  93 S2        30.10S
OLTON 6S         N/A     61  53  75 S8        30.09S
PALO DURO SP     N/A     58  50  74 S5        30.10S
PAMPA 2E         N/A     59  49  69 S7        30.07S
PLAINVIEW 1S     N/A     58  52  80 SE3       30.09R
SILVERTON 7ESE   N/A     56  48  72 S8        30.09R
TULIA 2ENE       N/A     58  51  79 S7        30.09S
TURKEY 2WSW      N/A     57  50  78 SW7       30.06S
UMBARGER 3NNE    N/A     59  54  84 S7        30.10R
$$

TXZ033>036-039>041-045>048-220800
TEXAS TECH WEST TEXAS MESONET/SOUTH PLAINS

CITY           SKY/WX    TMP DP  RH WIND       PRES   REMARKS
AIKEN 3WSW       N/A     54  50  87 S5        30.10S
ANDREWS 2NE      N/A     64  56  76 S2        30.09S
ANTON 6SSW       N/A     61  53  76 S6        30.10R
BROWNFIELD 2S    N/A     61  52  74 S7        30.09S
DENVR CTY 7WNW   N/A     59  56  87 S5        30.10S
GAIL 2ESE        N/A     62  52  69 SE1       30.07R
LAMESA 2SE       N/A     60  53  78 SW5       30.09S
LEVELLAND 4S     N/A     60  52  73 S5        30.09S
LUBBOCK 3WNW     N/A     64  50  60 S9        30.09S
MORTON 1ENE      N/A     59  56  88 S3        30.10S
ODONNELL 1N      N/A     61  50  66 SE6       30.09S
PLAINS 3N        N/A     60  56  85 S6        30.10S
RALLS 1SE        N/A     56  49  78 S3        30.10R
REESE CENTER     N/A     62  51  66 S10       30.09S
SEMINOLE 2NNE    N/A     62  58  87 S5        30.09S
SLATON 2NE       N/A     60  51  71 S8        30.09S
SNYDER 3E        N/A     60  52  73 SE6       30.07R
SUNDOWN 8SW      N/A     60  55  82 S5        30.10S
TAHOKA 3NNE      N/A     59  52  75 S5        30.09R
WOLFFORTH 6SSW   N/A     63  51  66 SE8       30.09S
$$

TXZ031-032-036>038-042>044-220800-
TEXAS TECH WEST TEXAS MESONET/ROLLING PLAINS

CITY           SKY/WX    TMP DP  RH WIND       PRES   REMARKS
ASPERMONT 3NE    N/A     61  51  67 SE6       30.06S
FLUVANNA 3WNW    N/A     61  50  68 SE8       30.07S
GRAHAM 5SSW      N/A     62  50  65 SE7       30.08S
GUTHRIE 10WSW    N/A     59  50  71 SE6       30.05S
HASKELL 1NW      N/A     63  49  59 S6        30.06S
JAYTON 1SSE      N/A     59  50  72 SE6       30.06S
KNOX CITY 3NW    N/A     63  49  62 SE9       30.06R
LK A HENRY 1NW   N/A     63  51  67 S3        30.06R
NORTHFIELD 1S    N/A     60  51  72 S7        30.06R
ODELL 4ENE       N/A     62  51  67 SE12      30.06S
PADUCAH 10SW     N/A     58  50  75 S7        30.06S
POST 1NE         N/A     62  50  64 S5        30.07S
RRING SPRGS 3N   N/A     57  50  77 S3        30.07S
SEYMOUR 3NW      N/A     62  49  63 SE6       30.06R
SPUR 1W          N/A     54  49  82 E1        30.06R
WEINERT 2NNE     N/A     62  49  63 S8        30.06S
WHITE RVR 6NE    N/A     61  50  65 S2        30.07S
$$

TXZ052-054-060>062-072-078-127-140-154-169-220800-
TEXAS TECH WEST TEXAS MESONET/PERMIAN BASIN/
CONCHO VALLEY/BIG COUNTRY/EDWARDS PLATEAU

CITY           SKY/WX    TMP DP  RH WIND       PRES   REMARKS
COYANOSA 2N      N/A     64  61  91 E6        30.06S
JUNCTION 1SSW    N/A     67  48  50 SE1       30.07F
MERTZON 3NNE     N/A     69  55  60 SE8       30.08S
SAN ANGELO 7NW   N/A     67  53  58 E5        30.07R
STRLNG CT 4WSW   N/A     68  53  59 E8        30.08R
ST LAWRNCE 5SW   N/A     64  58  80 SE5       30.07S
SWEETWATR 11SW   N/A     64  51  64 SE14      30.08F
WALL 1E          N/A     68  49  51 SE8       30.06F
$$

TXZ055-058-074-075-080-082-220800-
TEXAS TECH WEST TEXAS MESONET/FAR WEST/SOUTHWEST MOUNTAINS/TRANS PECOS

CITY           SKY/WX    TMP DP  RH WIND       PRES   REMARKS
PRSMN GAP BBNP   N/A     63  62  94 N10       30.05S
GUADLPE MTN NP   N/A     55  52  91 E1        30.16S
$$